Location: Elstree
(51.6403°N, 0.2969°W)
Time: 14:37:49
(UTC+00:00)

SJ 16-02 - Pass Details

Date: 23 June 2021
Orbit: 606 x 616 km, 75.0° (Epoch: 24 July)

Event Time Altitude Azimuth Distance (km) Brightness Sun altitude
Rises 22:13:48 0° 341° (NNW) 2,878 6.9 -11.2°
Reaches altitude 10° 22:16:11 10° 349° (N) 1,969 5.3 -11.3°
Maximum altitude 22:20:17 38° 58° (ENE) 943 2.4 -11.6°
Enters shadow 22:23:52 13° 124° (SE) 1,779 3.2 -11.8°
